Retour au catalogue

STARLINK-34006

ActifCommunicationsVLEO
NORAD 63869·PAYLOAD·🇺🇸 United States

Lancé May 10, 2025 depuis Vandenberg Space Force Base

Loading…

Prochains Passages (prochaines 24 heures)

TLE

FraisSource: CelesTrak SupGP

Époque: Sep 14, 2026, 22:22 UTC

1 63869C 25094F   26257.93243056 -.00013901  00000+0 -48359-3 0  2570
2 63869  69.9989 115.6708 0003148 272.9257 355.7889 15.29585795    14

Suivez STARLINK-34006 en temps réel avec AllMySat

Download on the App Store